Wind_Speed
18 17 17 17 17 17 17 16 14 12 13 14 14 14 13 13 13 11 10 10 11 10 10 10 9 8 8 9 9 11 11 11 12 13 12 12 13 12 11 10 10 10 9 9
17 16 17 18 18 18 18 16 14 13 13 14 15 14 13 13 12 11 11 11 11 10 9 8 8 7 7 8 9 10 10 11 12 12 12 12 12 11 10 9 9 9 9 8
16 16 18 18 19 19 18 17 15 14 15 16 17 15 15 13 12 12 11 10 9 9 8 7 7 7 7 8 9 10 10 10 11 11 12 12 11 10 9 8 8 8 7 7
16 17 18 19 19 19 18 17 16 15 15 16 16 14 14 13 13 13 11 10 8 7 7 7 7 8 8 9 9 10 10 10 11 12 12 12 11 11 10 9 8 7 6 6
16 17 19 19 19 19 18 17 17 17 16 16 16 15 14 14 12 12 10 9 8 7 6 6 7 8 9 9 9 9 9 10 10 11 11 12 11 11 11 10 8 8 7 6
17 18 18 18 19 19 18 18 19 18 17 17 16 17 15 14 12 11 10 9 8 6 6 6 7 8 9 9 9 9 9 11 10 10 11 11 11 11 11 10 9 8 7 6
17 17 18 18 19 19 19 18 18 18 17 16 16 16 15 12 12 11 10 9 7 7 7 8 7 7 8 9 9 9 10 11 11 10 11 11 11 11 10 9 9 8 8 7
16 17 17 18 18 19 18 18 18 18 17 17 17 16 14 12 11 10 9 8 6 7 7 8 8 7 9 9 9 9 9 11 11 11 10 11 11 10 10 9 9 8 8 7
16 16 17 18 18 18 18 19 19 19 18 18 17 16 15 13 11 10 8 8 7 7 7 7 7 8 9 9 9 8 8 9 10 10 10 10 11 10 10 9 9 9 8 7
17 17 18 18 18 18 18 18 19 20 20 18 17 15 14 12 11 9 8 8 8 8 8 7 6 8 9 10 9 9 9 9 9 10 10 11 11 10 10 10 9 9 8 7
19 18 19 19 20 20 20 19 20 21 20 18 16 15 14 12 11 10 9 9 9 8 9 9 8 8 9 10 10 9 9 9 10 10 11 10 10 11 10 10 10 9 8 8
21 21 21 21 22 22 22 20 20 20 20 19 17 13 13 13 12 11 11 11 11 10 10 10 9 9 10 10 10 10 10 9 10 11 11 10 11 10 10 10 9 9 8 7
23 23 22 23 23 23 23 21 20 20 20 20 18 14 13 13 13 12 12 13 12 12 12 11 11 11 11 11 11 11 10 10 10 10 11 11 11 11 11 10 9 9 8 8
26 25 25 25 24 24 24 22 21 21 21 20 18 15 13 13 13 13 13 13 13 13 13 13 13 12 12 12 12 12 11 11 11 10 10 10 10 11 11 10 10 9 9 9
28 27 26 26 26 26 25 24 23 22 21 20 17 15 13 14 14 14 14 14 13 13 13 13 13 13 13 13 13 12 12 12 12 11 11 10 10 11 11 11 11 10 10 11
28 28 27 26 26 27 25 24 23 22 21 20 18 16 16 16 15 15 16 15 15 14 15 14 14 14 14 14 13 13 13 13 13 12 12 12 12 12 12 12 12 12 12 12
27 27 26 26 26 27 26 23 23 22 20 20 19 17 18 18 16 16 17 17 16 16 16 16 15 15 15 14 14 14 14 13 13 13 13 13 13 13 13 13 13 13 13 14
25 25 25 25 25 26 22 22 22 21 21 20 19 19 19 19 18 18 17 18 19 19 18 18 17 17 16 16 15 15 15 14 13 13 13 13 14 14 14 15 15 15 15 15
23 23 23 23 23 23 21 21 22 21 20 19 18 19 19 20 20 19 18 19 20 20 20 20 20 19 18 18 17 16 16 16 15 14 14 14 15 15 15 15 16 16 16 17
22 22 22 21 22 21 20 20 20 21 20 19 19 19 19 20 21 20 19 19 20 21 21 21 21 20 19 19 18 18 17 16 16 16 16 16 16 16 16 16 17 17 18 18
22 22 21 21 20 20 19 19 20 20 19 18 19 19 20 20 21 21 21 21 21 22 22 23 22 21 21 20 20 19 19 18 18 18 18 17 18 18 18 18 18 19 19 20
21 21 21 21 20 19 18 19 19 19 19 19 19 19 20 22 22 22 21 22 23 23 22 23 24 23 22 21 21 21 20 20 20 19 19 20 20 20 20 20 21 21 21 21
19 19 20 20 20 19 19 19 18 18 18 19 20 21 21 22 23 23 22 22 23 23 23 23 24 24 23 23 22 22 21 22 22 22 21 21 21 22 22 22 23 23 23 23
19 19 19 20 20 19 19 19 20 20 19 19 19 20 21 22 22 22 23 23 23 24 23 23 23 24 24 23 23 23 23 23 23 23 22 21 22 23 23 23 24 25 25 25
18 18 18 19 19 19 19 20 20 21 20 19 19 18 19 20 21 22 23 24 23 24 24 23 23 24 24 24 24 24 24 23 24 23 24 23 23 24 24 25 25 26 26 27
16 18 18 18 18 19 20 21 21 21 21 21 21 20 20 20 21 22 23 24 23 23 23 23 23 23 23 24 25 25 25 24 24 24 24 24 24 25 26 27 27 27 28 28
Wind_Direction
257 257 256 255 252 250 250 250 252 254 259 267 274 279 282 285 288 296 294 291 285 282 280 274 258 245 237 225 219 214 220 219 217 213 212 216 219 219 218 217 219 221 225 231
253 252 250 249 247 247 247 250 254 255 257 261 267 271 276 280 285 291 294 289 279 273 276 271 259 241 226 216 210 206 213 213 211 206 207 211 212 214 210 207 211 215 219 222
250 248 246 244 245 248 249 251 253 253 256 263 268 269 270 274 279 286 291 283 269 273 269 258 247 228 215 205 198 199 207 210 207 201 201 205 208 204 197 198 203 205 207 211
244 244 244 244 246 250 249 252 253 254 258 264 272 270 267 269 275 281 285 282 268 265 262 246 233 214 200 198 198 199 204 203 200 196 198 199 197 193 192 193 194 196 199 207
240 240 242 242 244 247 248 251 255 256 260 263 266 269 269 271 275 279 281 279 271 260 253 232 215 198 191 196 200 197 198 197 193 192 193 192 193 191 193 192 193 195 198 204
234 237 240 240 240 245 248 249 254 256 259 262 265 269 268 269 273 272 270 272 270 251 233 214 197 190 189 192 190 188 191 190 189 191 190 188 192 192 192 194 192 191 194 197
235 236 240 240 238 244 248 250 253 255 257 262 265 270 271 269 271 268 266 268 259 240 223 209 196 188 184 184 184 186 186 187 187 188 188 191 192 190 189 188 189 190 193 198
241 238 241 243 244 244 246 250 254 257 259 262 264 267 267 268 269 268 266 261 246 231 218 203 194 191 180 180 182 183 187 190 189 187 187 187 186 186 190 190 191 193 197 202
248 241 242 245 244 244 246 247 252 259 262 265 265 264 264 261 264 265 257 247 234 222 213 202 200 197 191 186 183 183 183 187 190 192 191 189 186 191 193 194 197 199 202 207
251 243 240 245 246 247 248 249 252 257 264 266 263 265 265 261 259 254 247 242 231 223 214 209 210 206 196 189 185 185 187 187 188 191 192 188 188 192 194 196 200 204 205 208
252 247 243 246 248 251 250 250 253 258 261 264 263 262 263 258 254 248 239 233 223 218 216 217 214 201 193 191 190 190 192 192 191 190 190 190 191 193 196 199 201 203 207 213
254 253 248 248 250 250 252 252 254 257 260 262 264 259 259 255 247 243 236 230 225 218 217 220 214 203 196 195 195 195 195 193 194 195 197 197 197 196 195 198 202 204 208 216
256 256 255 252 251 252 251 250 253 256 258 260 261 259 255 250 243 242 238 233 228 225 222 223 216 207 201 201 201 201 200 200 199 201 203 205 206 206 204 203 208 214 220 226
257 257 257 256 254 254 252 249 250 253 255 255 256 254 249 243 240 238 235 231 227 229 225 219 213 209 207 205 205 205 205 206 206 206 207 208 209 213 212 215 220 224 228 235
258 258 259 258 255 254 253 251 250 250 251 250 253 249 241 240 238 236 232 229 230 234 222 215 215 214 213 211 210 209 209 209 211 212 214 217 219 221 224 228 232 234 239 245
260 259 257 256 254 254 253 250 249 248 248 246 248 244 241 240 234 233 230 228 230 228 222 220 217 217 216 216 214 212 212 213 215 218 221 226 228 230 234 237 241 244 248 252
258 258 256 255 253 252 253 252 251 249 247 244 242 240 239 237 233 233 231 229 224 223 223 222 221 220 219 218 217 217 217 218 221 225 228 232 235 238 241 244 246 249 252 255
253 253 253 253 251 250 250 248 246 244 243 244 241 236 234 231 230 230 231 230 222 223 225 224 223 222 221 221 222 224 225 225 227 232 236 239 242 244 247 249 251 254 256 259
250 249 250 249 249 249 246 244 243 243 242 240 237 233 231 229 228 228 231 229 224 226 228 226 226 225 225 224 226 228 230 231 234 238 242 245 247 248 251 252 253 256 260 263
248 247 249 248 247 245 242 242 241 240 238 236 235 236 235 232 230 227 228 227 224 227 229 228 229 230 231 231 230 231 233 234 237 241 244 247 249 251 254 257 258 260 263 266
248 248 249 246 244 242 241 241 238 236 234 234 235 234 231 229 229 229 229 226 225 227 229 229 230 231 233 233 234 235 237 237 239 242 246 250 252 254 257 260 262 264 267 269
246 247 247 244 241 240 240 241 235 232 231 233 233 232 230 228 229 230 229 226 227 227 230 230 231 231 234 236 238 238 239 240 242 245 248 251 254 257 259 261 264 267 270 272
243 244 245 243 241 240 239 237 234 230 230 232 235 232 228 226 226 227 227 227 226 225 228 231 230 230 234 237 239 240 242 244 246 248 250 253 257 260 261 263 265 267 271 273
242 243 243 240 239 237 236 234 234 232 231 229 228 226 226 226 226 227 227 226 228 228 227 231 233 232 234 237 240 241 243 246 249 251 253 257 258 260 262 266 268 270 272 274
241 237 235 236 235 235 236 235 234 231 226 223 223 223 224 223 225 226 225 228 232 232 231 233 233 234 237 240 242 244 246 250 253 255 255 256 259 262 265 269 271 273 275 277
239 239 238 237 236 234 233 232 231 229 226 225 224 223 224 226 225 226 229 231 232 233 233 235 237 238 240 242 245 247 250 253 256 258 258 259 260 263 266 269 271 273 275 276
Height
5827 5829 5830 5830 5831 5832 5832 5833 5834 5835 5834 5834 5833 5833 5833 5832 5832 5832 5831 5830 5830 5829 5829 5828 5828 5828 5829 5830 5831 5833 5835 5837 5839 5841 5843 5845 5847 5849 5850 5851 5853 5855 5856 5857
5824 5825 5826 5825 5826 5827 5829 5830 5831 5832 5831 5830 5830 5831 5831 5830 5830 5830 5829 5828 5828 5827 5826 5826 5826 5826 5827 5828 5830 5831 5833 5835 5837 5839 5841 5844 5846 5847 5848 5850 5851 5853 5854 5856
5820 5821 5821 5822 5823 5824 5825 5826 5827 5828 5828 5827 5828 5828 5828 5828 5828 5827 5827 5826 5825 5825 5824 5824 5824 5824 5825 5827 5828 5830 5831 5833 5835 5837 5840 5842 5844 5846 5847 5849 5850 5852 5853 5855
5815 5816 5817 5818 5819 5820 5822 5823 5824 5824 5825 5825 5825 5825 5825 5825 5825 5825 5825 5824 5823 5823 5822 5822 5822 5823 5824 5826 5828 5829 5831 5832 5834 5836 5838 5840 5843 5845 5846 5848 5849 5851 5852 5853
5812 5812 5813 5814 5816 5817 5818 5819 5820 5821 5821 5822 5822 5821 5823 5822 5822 5822 5822 5822 5821 5821 5821 5821 5821 5822 5824 5825 5827 5828 5830 5832 5833 5835 5837 5839 5841 5843 5845 5847 5848 5850 5851 5852
5808 5808 5809 5811 5812 5813 5814 5816 5816 5817 5818 5819 5819 5819 5819 5819 5820 5820 5820 5820 5819 5819 5819 5820 5821 5822 5823 5825 5826 5827 5829 5831 5832 5834 5836 5838 5840 5842 5844 5845 5847 5848 5850 5851
5804 5805 5806 5807 5808 5810 5811 5812 5813 5813 5814 5815 5816 5816 5817 5817 5817 5817 5817 5817 5817 5817 5818 5819 5820 5821 5822 5824 5825 5827 5828 5830 5831 5833 5835 5837 5839 5841 5843 5844 5846 5848 5849 5851
5800 5802 5803 5803 5805 5806 5807 5809 5810 5811 5811 5812 5813 5813 5815 5815 5815 5815 5815 5815 5816 5816 5817 5818 5819 5820 5822 5823 5825 5826 5828 5829 5831 5833 5834 5836 5838 5840 5842 5844 5845 5847 5849 5850
5795 5798 5799 5800 5801 5802 5803 5804 5806 5807 5808 5809 5809 5811 5812 5813 5813 5813 5814 5814 5815 5816 5817 5818 5819 5820 5821 5823 5824 5826 5827 5829 5830 5832 5834 5835 5837 5839 5841 5843 5844 5846 5848 5849
5791 5793 5795 5796 5797 5798 5800 5801 5803 5804 5804 5805 5806 5807 5809 5810 5811 5812 5812 5813 5814 5816 5817 5818 5819 5819 5821 5822 5824 5825 5827 5828 5830 5831 5833 5835 5836 5838 5840 5842 5844 5845 5847 5848
5786 5788 5790 5792 5793 5794 5796 5798 5798 5800 5801 5802 5803 5807 5807 5808 5809 5810 5811 5812 5813 5814 5816 5817 5818 5819 5820 5822 5823 5825 5827 5828 5829 5831 5832 5834 5835 5837 5839 5841 5843 5844 5846 5847
5781 5783 5785 5787 5788 5789 5791 5793 5794 5796 5797 5798 5799 5805 5804 5805 5806 5807 5808 5810 5811 5813 5814 5816 5817 5818 5820 5821 5823 5825 5826 5827 5828 5830 5832 5833 5835 5836 5838 5840 5842 5843 5844 5845
5777 5779 5780 5782 5785 5785 5786 5788 5789 5791 5793 5794 5795 5801 5800 5802 5803 5805 5806 5807 5809 5811 5812 5813 5815 5817 5818 5820 5822 5823 5825 5826 5827 5829 5830 5832 5834 5835 5837 5839 5840 5842 5843 5844
5771 5773 5775 5777 5777 5779 5780 5783 5784 5786 5787 5789 5792 5794 5796 5798 5800 5802 5804 5805 5807 5808 5810 5811 5813 5815 5817 5819 5820 5822 5823 5825 5826 5828 5829 5831 5832 5834 5836 5837 5839 5840 5841 5842
5765 5766 5768 5769 5771 5773 5775 5777 5779 5781 5783 5785 5788 5790 5793 5794 5797 5799 5801 5803 5804 5806 5807 5809 5811 5813 5815 5817 5819 5820 5822 5823 5825 5826 5828 5830 5831 5833 5834 5836 5837 5838 5839 5840
5757 5759 5761 5763 5765 5766 5768 5771 5773 5775 5778 5780 5783 5786 5789 5791 5793 5796 5798 5800 5802 5804 5805 5807 5809 5811 5813 5815 5816 5818 5820 5821 5823 5825 5826 5828 5829 5831 5832 5833 5834 5835 5836 5837
5751 5753 5754 5757 5758 5759 5762 5766 5767 5770 5772 5775 5778 5782 5784 5787 5790 5792 5794 5796 5799 5801 5803 5805 5807 5809 5811 5813 5814 5816 5817 5819 5821 5822 5824 5825 5827 5828 5830 5831 5832 5832 5833 5834
5745 5746 5748 5750 5753 5754 5760 5760 5762 5764 5767 5770 5773 5776 5779 5782 5785 5787 5790 5792 5795 5798 5800 5802 5804 5806 5808 5809 5811 5813 5815 5816 5818 5820 5821 5822 5824 5825 5826 5827 5828 5829 5829 5830
5738 5740 5742 5744 5746 5748 5753 5754 5756 5759 5762 5765 5768 5771 5774 5777 5780 5783 5786 5788 5791 5794 5796 5798 5801 5802 5804 5806 5808 5810 5812 5813 5815 5816 5818 5819 5820 5821 5822 5823 5824 5824 5825 5825
5733 5735 5737 5738 5740 5743 5748 5749 5751 5755 5757 5760 5763 5766 5769 5772 5776 5779 5781 5784 5786 5789 5792 5794 5797 5799 5801 5802 5804 5806 5808 5809 5811 5812 5814 5815 5817 5817 5818 5819 5820 5820 5820 5820
5727 5729 5731 5733 5734 5738 5741 5743 5746 5750 5754 5756 5758 5761 5764 5767 5771 5774 5776 5779 5782 5784 5787 5789 5792 5794 5796 5798 5800 5802 5804 5805 5806 5808 5809 5811 5812 5813 5813 5814 5815 5815 5815 5815
5722 5724 5726 5727 5730 5735 5736 5738 5741 5744 5747 5750 5752 5755 5758 5761 5764 5768 5771 5774 5777 5779 5782 5784 5787 5789 5791 5793 5795 5798 5799 5801 5801 5803 5804 5805 5806 5807 5808 5809 5809 5809 5809 5809
5717 5719 5721 5723 5727 5729 5731 5733 5736 5738 5742 5744 5747 5750 5752 5756 5759 5762 5766 5769 5772 5774 5777 5780 5782 5785 5787 5789 5791 5793 5794 5795 5796 5797 5798 5799 5800 5801 5802 5802 5803 5803 5803 5803
5712 5714 5715 5717 5720 5723 5725 5727 5730 5733 5736 5739 5742 5745 5748 5751 5754 5757 5760 5764 5767 5769 5772 5774 5776 5779 5781 5783 5785 5787 5788 5790 5791 5791 5792 5793 5794 5795 5796 5796 5796 5796 5796 5796
5707 5708 5710 5712 5715 5717 5720 5722 5725 5728 5731 5734 5737 5740 5743 5746 5749 5752 5755 5758 5761 5763 5766 5769 5771 5773 5776 5778 5779 5781 5782 5784 5785 5785 5786 5787 5788 5789 5789 5790 5790 5789 5789 5788
5701 5703 5705 5707 5710 5712 5715 5717 5720 5723 5726 5729 5732 5735 5738 5741 5744 5747 5750 5752 5755 5757 5760 5763 5765 5767 5769 5771 5773 5774 5776 5777 5778 5779 5779 5780 5781 5782 5782 5783 5782 5782 5781 5781